Location: Richterswil
(47.2055°N, 8.7071°E)
Time: 07:50:24
(UTC+00:00)

SL-16 R/B - Pass Details

Date: 07 June 2020
Orbit: 986 x 1006 km, 99.5° (Epoch: 14 July)

Event Time Altitude Azimuth Distance (km) Brightness Sun altitude
Exits shadow 00:10:23 10° 134° (SE) 2,768 4.6 -19.2°
Reaches altitude 10° 00:10:27 10° 134° (SE) 2,741 4.5 -19.2°
Maximum altitude 00:16:13 44° 65° (ENE) 1,341 3.5 -19.0°
Drops below altitude 10° 00:22:02 10° 355° (N) 2,765 6.0 -18.8°
Sets 00:24:37 0° 350° (N) 3,721 6.7 -18.7°
